Christopher King

Recruteur - West Bromwich Albion
3 Avr 2027
Samedi
Processus

Personnalité

Adaptabilité (6) Ambition (19) Controverse (14) Loyauté (9) Pression (18) Professionnalisme (2) Sportivité (16) Tempérament (18)

Profil

Style d'entraînement Démocratique
Diplôme Continental C
Détermination 9
Gestion des joueurs 12
Motivation 12
Discipline 8
Satisfaction professionnelle
50%
Fatigue
0%
Rôle Recruteur
Salaire 25.2K p/s
Contrat 14.03.2028

Performance

Comportement Normal
Efficacité de l'entraînement
21%
Développement des joueurs
50%
Prévention des blessures
45%
Mise en place tactique
30%

Événements récents

A évalué un joueur maintenant
A évalué un joueur 7j
A participé à une réunion de recrutement 7j
A évalué un joueur 7j
A évalué un joueur 7j
A observé un match 7j
A observé un match 7j
A évalué un joueur 14j

Suivi en cours

129
Joueur Club Statut Capacité Confiance Observé Dernière observation Dernier vote
Román Vega Zenit Actif 110 / 127 40% 1 02.04.2027 -
Lorenzo Ignacchiti Empoli Actif 113 / 123 40% 1 02.04.2027 -
Olakunle Olusegun Rostov Actif 143 / 125 40% 3 29.03.2027 -
Ilja Vakhania Krasnodar Actif 130 / 112 40% 1 29.03.2027 -
Stiven Shpendi Empoli Actif 125 / 123 40% 4 25.03.2027 -
Ibrahim Cissoko Zwolle Actif 109 / 127 40% 3 25.03.2027 -
Andrea Ciofi Cesena Actif 128 / 123 40% 2 23.03.2027 -
Bruninho Maccabi Haifa Actif 130 / 106 40% 1 23.03.2027 -
Filippo Ranocchia Palermo Actif 124 / 134 40% 2 22.03.2027 -
Maksim Samorodov Akhmat Grozny Actif 105 / 131 40% 1 22.03.2027 -
Álex Centelles Levski Actif 114 / 122 40% 2 20.03.2027 -
Junior Tchamadeu Stoke City Actif 118 / 127 40% 1 20.03.2027 -
Helinho Toluca Actif 129 / 129 40% 5 18.03.2027 -
Haissem Hassan Bloemfontein Celtic Actif 124 / 132 40% 1 18.03.2027 -
Osher Davida Maccabi Tel Aviv Actif 104 / 128 40% 2 17.03.2027 -
Damián Puebla Orenburg Actif 107 / 136 40% 1 17.03.2027 -
Giacomo Olzer Pescara Actif 123 / 113 40% 2 16.03.2027 -
Vinicius Tobias Shakhtar Actif 130 / 133 40% 5 14.03.2027 -
Naïs Djouahra Arouca Actif 133 / 117 40% 2 14.03.2027 -
Luciano Juba Bahia Actif 128 / 141 40% 1 13.03.2027 -
Anderson Arroyo Rubin Actif 118 / 125 40% 1 13.03.2027 -
Leandro Andrade Polissia Actif 143 / 124 40% 4 12.03.2027 -
Nail Umyarov Spartak Moscow Actif 134 / 118 40% 3 11.03.2027 -
Lechi Sadulaev Akhmat Grozny Actif 110 / 128 40% 2 09.03.2027 -
Luke Thomas Leicester City Actif 124 / 137 40% 2 07.03.2027 -
Kauã Elias Shakhtar Actif 150 / 125 40% 3 05.03.2027 -
Danil Glebov Dinamo Moscow Actif 114 / 121 40% 3 04.03.2027 -
Armstrong Oko-Flex Levski Actif 136 / 115 40% 2 04.03.2027 -
Dmytro Kryskiv Shakhtar Actif 110 / 116 40% 1 03.03.2027 -
Oscar Schwartau Norwich City Actif 122 / 135 40% 2 02.03.2027 -
Ali McCann Preston Actif 107 / 112 40% 2 01.03.2027 -
Nazar Voloshyn Dynamo Kyiv Actif 138 / 122 40% 1 01.03.2027 -
Relebohile Mofokeng Orlando Pirates Actif 102 / 113 40% 3 26.02.2027 -
John Yeboah Venezia Actif 127 / 123 40% 1 26.02.2027 -
Pedro Zenit Actif 130 / 142 40% 2 22.02.2027 -
Samuele Birindelli Monza Actif 133 / 122 40% 5 22.02.2027 -
Petar Stanić Ludogorets Actif 154 / 144 40% 1 21.02.2027 -
Kostiantyn Vivcharenko Dynamo Kyiv Actif 127 / 111 40% 1 18.02.2027 -
Ronaldo Rostov Actif 125 / 135 40% 3 15.02.2027 -
Pedro Henrique Shakhtar Actif 136 / 142 40% 2 14.02.2027 -
Cédric Don Maccabi Haifa Actif 109 / 122 40% 1 09.02.2027 -
Suleiman Camara Slovan Bratislava Actif 108 / 124 40% 1 08.02.2027 -
Juan Manuel Boselli Krasnodar Actif 137 / 111 40% 1 07.02.2027 -
Alexandr Chernikov Krasnodar Actif 126 / 142 40% 3 04.02.2027 -
Moses Cobnan Krasnodar Actif 113 / 121 40% 1 04.02.2027 -
Oscar Fraulo Derby County Actif 111 / 115 40% 1 03.02.2027 -
Lindon Emërllahu Polissia Actif 115 / 116 40% 1 03.02.2027 -
Hélio Varela Maccabi Tel Aviv Actif 140 / 130 40% 1 02.02.2027 -
Ali Soliman Masr El Makasa Actif 114 / 127 40% 1 25.01.2027 -
Eivind Helland Bologna Actif 121 / 133 40% 1 24.01.2027 -
Manqoba Mlele AS Police Actif 94 / 95 40% 1 24.01.2027 -
Aarón Quiros Vélez Actif 137 / 131 40% 1 17.01.2027 -
Andrian Kraev Hapoel Tel Aviv Actif 121 / 120 40% 1 16.01.2027 -
Conrad Wallem Valerenga Actif 127 / 133 40% 5 13.01.2027 -
Callum Doyle Wrexham Actif 122 / 127 40% 2 12.01.2027 -
Marlon Gomes Shakhtar Actif 149 / 137 40% 2 11.01.2027 -
James Eto'o CSKA Sofia Actif 115 / 110 40% 1 11.01.2027 -
Doğucan Haspolat Westerlo Actif 130 / 116 40% 1 09.01.2027 -
Nicolás Marichal Dinamo Moscow Actif 133 / 118 40% 2 07.01.2027 -
Emanuel Aiwu Apollon Actif 120 / 118 40% 1 07.01.2027 -
Matteo Francesconi Cesena Actif 118 / 118 40% 1 05.01.2027 -
Lorenzo Pirola Olympiacos Actif 141 / 140 40% 1 05.01.2027 -
Nazareno Colombo Racing Club Actif 125 / 118 40% 2 31.12.2026 -
Max Cleworth Wrexham Actif 127 / 131 40% 1 31.12.2026 -
Jorge Cabello Levante Actif 125 / 121 40% 1 30.12.2026 -
Damián Fernández Defensa y Justicia Actif 125 / 133 40% 1 30.12.2026 -
Victor Parada Spartak Moscow Actif 113 / 110 40% 2 26.12.2026 -
Juan Bisanz Huracán Actif 122 / 134 40% 1 26.12.2026 -
Pablo Ramón Racing Club Actif 127 / 137 40% 1 22.12.2026 -
Tomás Silva Platense Actif 135 / 132 40% 1 20.12.2026 -
Alexis Cuello San Lorenzo Actif 123 / 117 40% 2 17.12.2026 -
Japhet Sery Larsen Philadelphia Union Actif 134 / 133 40% 2 17.12.2026 -
Joaquín García Vélez Actif 116 / 119 40% 1 17.12.2026 -
Arsen Adamov Akhmat Grozny Actif 112 / 119 40% 1 17.12.2026 -
Juan Mosquera Portland Timbers Actif 122 / 120 40% 3 16.12.2026 -
Arne Maier Ujpest Actif 117 / 120 40% 1 16.12.2026 -
Marcus McGuane Huddersfield Town Actif 107 / 117 40% 1 14.12.2026 -
Juan Bezerra Zamalek Actif 125 / 127 40% 1 14.12.2026 -
Emil Breivik Molde Actif 140 / 128 40% 1 14.12.2026 -
Mariano Gómez Ferencvaros Actif 120 / 128 40% 1 13.12.2026 -
Luther Billiat Ajax Cape Town Actif 109 / 125 40% 1 13.12.2026 -
Felipe Peña Biafore Lanús Actif 123 / 128 40% 2 12.12.2026 -
Alhassan Yusuf New England Revolution Actif 143 / 118 40% 2 09.12.2026 -
Lasse Berg Johnsen Sporting Kansas City Actif 114 / 112 40% 2 09.12.2026 -
Miguel Navarro Colorado Rapids Actif 108 / 124 40% 1 09.12.2026 -
Camilo Durán Bloemfontein Celtic Actif 105 / 119 40% 2 07.12.2026 -
Angelo Gattermayer Wolfsberger AC Actif 133 / 119 40% 1 07.12.2026 -
Jack Currie Oxford United Actif 127 / 120 40% 1 07.12.2026 -
Franco Ibarra Rosario Central Actif 118 / 124 40% 2 05.12.2026 -
Emil Ceïde Rosenborg Actif 132 / 121 40% 2 03.12.2026 -
Volodymyr Brazhko Dynamo Kyiv Actif 113 / 136 40% 1 03.12.2026 -
Raul Gustavo New York City Actif 108 / 133 40% 1 03.12.2026 -
Quinn Sullivan Philadelphia Union Actif 107 / 131 40% 2 02.12.2026 -
Luis Palma Lech Actif 113 / 112 40% 1 30.11.2026 -
James Sands New York City Actif 119 / 117 40% 4 29.11.2026 -
Frans Krätzig Red Bull Salzburg Actif 123 / 130 40% 1 29.11.2026 -
Itumeleng Tau Ajax Cape Town Actif 107 / 118 40% 3 28.11.2026 -
Arturo Cipriani Astra Actif 127 / 136 40% 2 27.11.2026 -
Pedro Bravo FC Midtjylland Actif 112 / 116 40% 2 26.11.2026 -
Alex Luna Instituto Actif 125 / 127 40% 3 25.11.2026 -
Josh Tymon Swansea City Actif 110 / 114 40% 1 23.11.2026 -
Jens Petter Hauge Bodo/Glimt Actif 144 / 141 40% 1 23.11.2026 -
Ki-Jana Hoever Sparta Prague Actif 139 / 114 40% 1 19.11.2026 -
Elias Achouri San Diego Football Club Actif 119 / 122 40% 2 17.11.2026 -
Indiana Vassilev Philadelphia Union Actif 131 / 127 40% 2 16.11.2026 -
Alexander Díaz Deportivo Riestra Actif 126 / 117 40% 1 16.11.2026 -
David Ayala Inter Miami CF Actif 137 / 130 40% 1 15.11.2026 -
Kevin Lomónaco Independiente Actif 125 / 129 40% 1 14.11.2026 -
Julio Alonso Huesca Actif 112 / 124 40% 1 14.11.2026 -
Francisco Álvarez Argentinos Juniors Actif 113 / 129 40% 1 12.11.2026 -
Lukas Mai Lugano Actif 125 / 117 40% 1 12.11.2026 -
Ibrahim Aliyu Houston Dynamo Actif 119 / 121 40% 1 11.11.2026 -
Leandro Lozano Boca Juniors Actif 135 / 133 40% 1 10.11.2026 -
Jeon Jin-Woo Albirex Niigata Actif 117 / 125 40% 2 09.11.2026 -
Oscar Salomón Newell's Old Boys Actif 122 / 121 40% 2 07.11.2026 -
Santiago Montiel Independiente Actif 123 / 118 40% 2 04.11.2026 -
Cole Bassett Portland Timbers Actif 130 / 126 40% 1 03.11.2026 -
Matko Miljevic Racing Club Actif 132 / 125 40% 1 31.10.2026 -
Amin Boudri Los Angeles Football Club Actif 106 / 139 40% 1 23.10.2026 -
Oswin Appollis Orlando Pirates Actif 130 / 122 40% 1 17.10.2026 -
Loïc Williams Colorado Rapids Actif 110 / 126 40% 1 11.10.2026 -
Jacob Shaffelburg Los Angeles Football Club Actif 105 / 124 40% 1 09.10.2026 -
Mauricio Amaro Atlanta United FC Actif 109 / 129 40% 1 08.10.2026 -
Kimito Nono Gamba Osaka Actif 129 / 117 40% 1 08.10.2026 -
Dor Turgeman New England Revolution Actif 111 / 142 40% 1 07.10.2026 -
Theo Corbeanu Toronto FC Actif 106 / 114 40% 1 06.10.2026 -
Nectar Triantis Minnesota United FC Actif 121 / 126 40% 1 05.10.2026 -
Agustín Sández Rosario Central Actif 113 / 116 40% 1 05.10.2026 -
Rhian Brewster Derby County Actif 127 / 126 51% 1 17.08.2026 -